Location: Northcutt
(34.7304°N, 84.4305°W)
Time: 02:30:37
(UTC+00:00)

SR - Pass Details

Date: 09 October 2022
Orbit: 577 x 874 km, 66.7° (Epoch: 06 December)

Event Time Altitude Azimuth Distance (km) Brightness Sun altitude
Rises 23:52:27 0° 184° (S) 3,384 ? -9.1°
Reaches altitude 10° 23:55:01 10° 177° (S) 2,479 ? -9.6°
Maximum altitude 00:00:21 39° 110° (ESE) 1,275 ? -10.7°
Drops below altitude 10° 00:05:47 10° 43° (NE) 2,524 ? -11.9°
Sets 00:08:24 0° 36° (NE) 3,453 ? -12.4°
